Change the Weather History Date:

Wednesday, January 16, 2013

  Actual Average Record
Temperature  
Mean Temperature 68 °F -  
Max Temperature 79 °F 76 °F 82 °F (1998)
Min Temperature 57 °F 54 °F 48 °F (2003)
Cooling Degree Days 3    
Growing Degree Days 18 (Base 50)    
Moisture  
Dew Point 60 °F    
Average Humidity 76    
Maximum Humidity 94    
Minimum Humidity 47    
Precipitation  
Precipitation 0.00 in - - ()
Sea Level Pressure  
Sea Level Pressure 29.99 in    
Wind  
Wind Speed 1 mph ()    
Max Wind Speed 7 mph    
Max Gust Speed -    
Visibility 0.7 miles    
Events Fog    
Averages and records for this station are not official NWS values.
T = Trace of Precipitation, MM = Missing Value Source: Averaged Metar Reports

Daily Weather History Graph

Daily Weather History Graph

Search for Another Location

Airport or City:

Trip Planner

Search our weather history database for the weather conditions in past years. The results will help you decide how hot, cold, wet, or windy it might be!

Date:

Astronomy

Jan. 16, 2013 Rise Set
Actual Time 6:18 AM IST 5:13 PM IST
Civil Twilight 5:54 AM IST 5:37 PM IST
Nautical Twilight 5:27 AM IST 6:04 PM IST
Astronomical Twilight 5:00 AM IST 6:32 PM IST
Moon 9:19 AM IST (1/16) 9:50 PM IST (1/16)
Length of Visible Light 11h 42m
Length of Day
10h 54m
Waxing Crescent, 24% of the Moon is Illuminated
Jan 16
Waxing Crescent
Jan 19
First Quarter
Jan 27
Full
Feb 3
Last Quarter
Feb 10
New

Hourly Weather History & Observations

Time (IST) Temp. Heat Index Dew Point Humidity Pressure Visibility Wind Dir Wind Speed Gust Speed Precip Events Conditions
12:20 AM 60.8 °F - 57.2 °F 88% 29.98 in 0.5 mi Calm Calm - N/A Fog Shallow Fog
12:50 AM 60.8 °F - 57.2 °F 88% 29.98 in 0.5 mi Calm Calm - N/A Fog Shallow Fog
1:20 AM 60.8 °F - 59.0 °F 94% 29.98 in 0.4 mi Calm Calm - N/A Fog Fog
1:50 AM 60.8 °F - 59.0 °F 94% 29.98 in 0.4 mi Calm Calm - N/A Fog Fog
2:20 AM 59.0 °F - 57.2 °F 94% 29.95 in 0.4 mi Calm Calm - N/A Fog Fog
2:50 AM 59.0 °F - 57.2 °F 94% 29.95 in 0.4 mi Calm Calm - N/A Fog Fog
3:20 AM 59.0 °F - 57.2 °F 94% 29.98 in 0.4 mi Calm Calm - N/A Fog Fog
3:50 AM 59.0 °F - 57.2 °F 94% 29.98 in 0.4 mi Calm Calm - N/A Fog Fog
4:20 AM 59.0 °F - 57.2 °F 94% 29.98 in 0.4 mi Calm Calm - N/A Fog Fog
4:50 AM 57.2 °F - 55.4 °F 94% 29.98 in 0.4 mi Calm Calm - N/A Fog Fog
5:20 AM 57.2 °F - 55.4 °F 94% 29.98 in 0.4 mi Calm Calm - N/A Fog Fog
5:30 AM 59 °F - 57 °F 91% 30.01 in 1 mi Calm Calm - -   Mist
5:50 AM 57.2 °F - 55.4 °F 94% 30.01 in 0.4 mi Calm Calm - N/A Fog Fog
6:20 AM 59.0 °F - 57.2 °F 94% 30.01 in 0.3 mi Calm Calm - N/A Fog Fog
7:20 AM 59.0 °F - 57.2 °F 94% 30.01 in 0.2 mi Calm Calm - N/A Fog Fog
7:50 AM 60.8 °F - 57.2 °F 88% 30.04 in 0.2 mi Calm Calm - N/A Fog Fog
8:20 AM 62.6 °F - 59.0 °F 88% 30.04 in 0.2 mi Calm Calm - N/A Fog Fog
8:30 AM 63 °F - 61 °F 90% 30.06 in 1 mi Calm Calm - -   Mist
8:50 AM 64.4 °F - 60.8 °F 88% 30.06 in 0.2 mi Calm Calm - N/A Fog Fog
9:20 AM 66.2 °F - 62.6 °F 88% 30.04 in 0.2 mi Calm Calm - N/A Fog Fog
9:50 AM 68.0 °F - 62.6 °F 83% 30.06 in 0.4 mi ESE 4.6 mph - N/A Fog Fog
10:20 AM 71.6 °F - 62.6 °F 73% 30.06 in 0.6 mi ESE 4.6 mph - N/A Fog Shallow Fog
10:50 AM 73.4 °F - 60.8 °F 65% 30.06 in 0.7 mi SSE 6.9 mph - N/A   Mist
11:20 AM 77.0 °F - 59.0 °F 54% 30.04 in 0.9 mi SE 5.8 mph - N/A   Smoke
11:30 AM 77 °F - 65 °F 58% 30.03 in 1 mi Calm Calm - -   Haze
12:20 PM 78.8 °F - 59.0 °F 51% 29.95 in 1.1 mi SE 4.6 mph - N/A   Smoke
12:50 PM 78.8 °F - 57.2 °F 47% 29.95 in 1.1 mi ESE 4.6 mph - N/A   Smoke
1:20 PM 78.8 °F - 57.2 °F 47% 29.95 in 1.1 mi ESE 4.6 mph - N/A   Smoke
2:20 PM 80.6 °F 81.1 °F 59.0 °F 48% 29.95 in 1.1 mi East 4.6 mph - N/A   Smoke
2:50 PM 80.6 °F 81.1 °F 59.0 °F 48% 29.98 in 1.1 mi SE 4.6 mph - N/A   Smoke
3:20 PM 78.8 °F - 59.0 °F 51% 29.98 in 1.1 mi ESE 4.6 mph - N/A   Smoke
3:50 PM 78.8 °F - 60.8 °F 54% 29.98 in 1.1 mi ESE 4.6 mph - N/A   Haze
4:20 PM 78.8 °F - 60.8 °F 54% 29.98 in 1.1 mi Calm Calm - N/A   Haze
4:50 PM 77.0 °F - 62.6 °F 61% 29.95 in 1.1 mi Calm Calm - N/A   Haze
5:20 PM 75.2 °F - 60.8 °F 61% 29.95 in 1.1 mi ESE 4.6 mph - N/A   Haze
5:30 PM 74 °F - 62 °F 59% 29.98 in 1 mi Calm Calm - -   Haze
5:50 PM 73.4 °F - 62.6 °F 69% 29.98 in 1.1 mi SE 4.6 mph - N/A   Haze
6:20 PM 73.4 °F - 62.6 °F 69% 29.98 in 1.1 mi Calm Calm - N/A   Haze
6:50 PM 73.4 °F - 62.6 °F 69% 29.98 in 1.1 mi Calm Calm - N/A   Haze
7:20 PM 73.4 °F - 62.6 °F 69% 29.98 in 1.1 mi Calm Calm - N/A   Haze
7:50 PM 69.8 °F - 60.8 °F 73% 29.98 in 1.1 mi Calm Calm - N/A   Haze
8:20 PM 69.8 °F - 60.8 °F 73% 29.98 in 1.1 mi Calm Calm - N/A   Haze
8:30 PM 68 °F - 62 °F 76% 30.01 in 1 mi Calm Calm - -   Haze
8:50 PM 68.0 °F - 60.8 °F 78% 29.98 in 0.9 mi Calm Calm - N/A   Mist
9:20 PM 68.0 °F - 60.8 °F 78% 29.95 in 0.9 mi Calm Calm - N/A   Mist
9:50 PM 68.0 °F - 60.8 °F 78% 29.98 in 0.9 mi Calm Calm - N/A   Mist
10:20 PM 68.0 °F - 60.8 °F 78% 29.98 in 0.7 mi Calm Calm - N/A   Mist
10:50 PM 66.2 °F - 60.8 °F 83% 29.98 in 0.7 mi Calm Calm - N/A   Mist
11:20 PM 66.2 °F - 60.8 °F 83% 29.98 in 0.6 mi Calm Calm - N/A   Mist
11:30 PM 65 °F - 61 °F 83% 30.01 in 1 mi Calm Calm - -   Mist
11:50 PM 64.4 °F - 60.8 °F 88% 29.98 in 0.6 mi Calm Calm - N/A Fog Shallow Fog